Seldovia, AK

12:47 PM AKDT on July 26, 2016 (GMT -0800)
Seldovia

Weather History for PASO - December, 2012

Change the Weather History Date:

Saturday, December 8, 2012

  Actual Average (PAHO) Record (PAHO)
Temperature  
Mean Temperature 29 °F -  
Max Temperature 35 °F 30 °F 51 °F (2014)
Min Temperature 23 °F 18 °F -9 °F (1975)
Degree Days  
Heating Degree Days 36    
Moisture  
Dew Point 28 °F    
Average Humidity 92    
Maximum Humidity 100    
Minimum Humidity 87    
Precipitation  
Precipitation 0.28 in - - ()
Sea Level Pressure  
Sea Level Pressure 29.39 in    
Wind  
Wind Speed 1 mph (South)    
Max Wind Speed 16 mph    
Max Gust Speed 22 mph    
Visibility 6 miles    
Events Rain , Snow    
Averages and records for this station are not official NWS values.
T = Trace of Precipitation, MM = Missing Value Source: NWS Daily Summary

Daily Weather History Graph

Daily Weather History Graph

Search for Another Location

Airport or City:

Trip Planner

Search our weather history database for the weather conditions in past years. The results will help you decide how hot, cold, wet, or windy it might be!

Date:

Astronomy

Dec. 08, 2012 Rise Set
Actual Time 9:50 AM AKST 4:07 PM AKST
Civil Twilight 8:56 AM AKST 5:01 PM AKST
Nautical Twilight 8:01 AM AKST 5:56 PM AKST
Astronomical Twilight 7:11 AM AKST 6:46 PM AKST
Moon 3:20 AM AKST (12/8) 1:42 PM AKST (12/8)
Length of Visible Light 8h 05m
Length of Day
6h 16m
Waning Crescent, 27% of the Moon is Illuminated
Dec 8
Waning Crescent
Dec 12
New
Dec 19
First Quarter
Dec 28
Full
Jan 4
Last Quarter

Hourly Weather History & Observations

Time (AKST) Temp. Windchill Dew Point Humidity Pressure Visibility Wind Dir Wind Speed Gust Speed Precip Events Conditions
12:53 AM 23.0 °F - 21.0 °F 92% 29.83 in 10.0 mi Calm Calm - N/A   Overcast
1:38 AM 23.0 °F - 21.2 °F 93% 29.83 in 5.0 mi Calm Calm - 0.00 in Snow Light Snow
1:53 AM 24.1 °F - 21.0 °F 88% 29.82 in 5.0 mi Calm Calm - 0.00 in Snow Light Snow
3:53 AM 24.1 °F - 21.9 °F 91% 29.78 in 10.0 mi Calm Calm - 0.00 in   Overcast
4:53 AM 25.0 °F - 23.0 °F 92% 29.74 in 10.0 mi Calm Calm - N/A   Overcast
5:53 AM 26.1 °F - 24.1 °F 92% 29.72 in 10.0 mi Calm Calm - N/A   Overcast
6:53 AM 26.1 °F - 24.1 °F 92% 29.69 in 10.0 mi Calm Calm - N/A   Overcast
7:12 AM 26.6 °F - 24.8 °F 93% 29.68 in 10.0 mi Calm Calm - N/A   Overcast
7:53 AM 28.9 °F - 26.1 °F 89% 29.66 in 7.0 mi Calm Calm - 0.00 in Snow Light Snow
8:53 AM 28.0 °F - 25.0 °F 88% 29.62 in 7.0 mi Calm Calm - 0.00 in Snow Light Snow
9:53 AM 28.0 °F - 26.1 °F 92% 29.58 in 4.0 mi Calm Calm - 0.00 in Snow Light Snow
10:12 AM 28.4 °F 21.2 °F 26.6 °F 93% 29.56 in 2.0 mi South 6.9 mph - 0.01 in Snow Light Snow
10:25 AM 28.4 °F 22.2 °F 26.6 °F 93% 29.56 in 1.5 mi SSE 5.8 mph - 0.01 in Snow Light Snow
10:53 AM 28.9 °F - 27.0 °F 92% 29.53 in 2.0 mi Calm Calm - 0.03 in Snow Light Snow
11:22 AM 28.4 °F 24.6 °F 26.6 °F 93% 29.51 in 3.0 mi Variable 3.5 mph - 0.00 in Snow Light Snow
11:53 AM 30.0 °F - 28.0 °F 92% 29.47 in 4.0 mi Calm Calm - 0.00 in Snow Light Snow
12:12 PM 28.4 °F 23.3 °F 28.4 °F 100% 29.45 in 2.0 mi South 4.6 mph - 0.00 in Snow Light Snow
12:21 PM 30.2 °F - 28.4 °F 93% 29.44 in 1.5 mi Calm Calm - 0.00 in Snow Light Snow
12:53 PM 30.0 °F 25.2 °F 28.0 °F 92% 29.39 in 4.0 mi South 4.6 mph - 0.01 in Snow Light Snow
1:08 PM 30.2 °F - 28.4 °F 93% 29.37 in 8.0 mi Calm Calm - 0.00 in Snow Light Snow
1:53 PM 30.9 °F - 28.9 °F 92% 29.30 in 6.0 mi Calm Calm - 0.00 in Snow Light Snow
2:06 PM 32.0 °F 25.6 °F 30.2 °F 93% 29.29 in 6.0 mi Variable 6.9 mph - 0.00 in   Overcast
2:30 PM 32.0 °F 28.7 °F 30.2 °F 93% 29.30 in 9.0 mi SSW 3.5 mph - 0.01 in Rain Light Rain
2:53 PM 33.1 °F - 30.9 °F 92% 29.31 in 7.0 mi Calm Calm - 0.01 in Rain Light Freezing Rain
3:23 PM 33.8 °F - 32.0 °F 93% 29.28 in 1.8 mi Calm Calm - 0.02 in Snow Light Snow
3:42 PM 32.0 °F - 30.2 °F 93% 29.25 in 0.8 mi Calm Calm - 0.04 in Snow Light Snow
3:48 PM 33.8 °F - 30.2 °F 87% 29.25 in 1.0 mi Calm Calm - 0.04 in Snow Light Snow
3:53 PM 33.1 °F 30.0 °F 32.0 °F 96% 29.25 in 2.0 mi South 3.5 mph - 0.05 in Snow Light Snow
4:05 PM 33.8 °F 30.8 °F 32.0 °F 93% 29.25 in 3.0 mi NNE 3.5 mph - 0.00 in Snow Light Snow
4:23 PM 35.6 °F 27.5 °F 32.0 °F 87% 29.21 in 5.0 mi NNE 11.5 mph - 0.01 in Snow Light Snow
4:53 PM 35.1 °F 25.2 °F 33.1 °F 92% 29.21 in 3.0 mi NNE 16.1 mph 21.9 mph 0.07 in Rain Rain
5:33 PM 35.6 °F - 33.8 °F 93% 29.20 in 4.0 mi Calm Calm - 0.08 in Rain Light Rain
5:53 PM 33.1 °F - 32.0 °F 96% 29.19 in 5.0 mi Calm Calm - 0.09 in Rain Light Rain
6:24 PM 33.8 °F 30.8 °F 32.0 °F 93% 29.17 in 8.0 mi SSW 3.5 mph - 0.01 in Rain Light Rain
6:53 PM 33.1 °F - 32.0 °F 96% 29.16 in 10.0 mi Calm Calm - 0.02 in Rain Light Rain
7:25 PM 33.8 °F - 30.2 °F 87% 29.15 in 8.0 mi Calm Calm - 0.00 in   Mostly Cloudy
7:53 PM 33.1 °F - 30.9 °F 92% 29.15 in 10.0 mi Calm Calm - 0.00 in   Overcast
8:40 PM 33.8 °F - 32.0 °F 93% 29.16 in 7.0 mi Calm Calm - 0.00 in Snow Light Snow
8:51 PM 33.8 °F - 30.2 °F 87% 29.17 in 8.0 mi Calm Calm - 0.00 in Snow Light Snow
8:53 PM 33.1 °F - 30.9 °F 92% 29.17 in 8.0 mi Calm Calm - 0.00 in Snow Light Snow
9:53 PM 33.1 °F - 30.9 °F 92% 29.19 in 6.0 mi Calm Calm - 0.00 in Snow Light Snow
10:11 PM 33.8 °F - 30.2 °F 87% 29.20 in 8.0 mi Calm Calm - 0.00 in   Overcast
10:25 PM 33.8 °F - 30.2 °F 87% 29.21 in 6.0 mi Calm Calm - 0.00 in Snow Light Snow
10:53 PM 32.0 °F - 28.9 °F 88% 29.21 in 10.0 mi Calm Calm - 0.00 in   Overcast
11:37 PM 30.2 °F 26.7 °F 28.4 °F 93% 29.20 in 10.0 mi South 3.5 mph - N/A   Scattered Clouds
11:53 PM 30.9 °F - 28.9 °F 92% 29.20 in 10.0 mi Calm Calm - N/A   Clear